sat.trackr.live / text

‹ back to catalog

STARLINK-35742

NORAD 66276 · 2025-247M

PAYLOAD ACTIVE UNKNOWN

§ Identity

Operator
Country
US
Launch date
2025-10-31
Launch site
AFWTR
Launch vehicle
Mass (kg)
RCS (m²)

Purposes: comms

External: N2YO · Heavens-Above · Gunter

§ Orbital elements

Epoch: 2026-09-20T14:19:46.691616Z

Period
93.85 min
Inclination
53.1607°
Eccentricity
0.0001100
Mean motion
15.34409309 rev/d
Perigee alt
461.9 km
Apogee alt
463.4 km
Semi-major
6,840.8 km
B*
7.4143e-4
RAAN
3.3689°
Arg perigee
83.3155°
Mean anomaly
276.7973°
Rev number
5,096

§ Raw data

STARLINK-357421 66276U 25247M   26263.59706819  .00024764  00000+0  74143-3 0  99952 66276  53.1607   3.3689 0001100  83.3155 276.7973 15.34409309 50966

JSON: /api/v1/satellites/66276 · /tle

For live sub-satellite position, see the globe view (requires WebGL).

§ Visibility from observer

Set your observer location to see the next 7 days of passes ≥ 10°. The values pass through the URL so the page stays shareable.

No JS? Fill the form by hand. The geolocation button needs JavaScript.